This demonstration page uses our WeatherBlox Daily Observations layout. Learn more.

Left ArrowRight Arrow

38.83388, -104.82136

Hourly Observations for January 24, 2015

Temp ( °F °C ) Dew Point ( °F °C ) Humidity (%) Winds ( mph kmh ) Pressure ( in mb ) Visibility ( mi km ) Precip ( " mm )
12:56 am 00:56 Mostly Clear 29 -1.4 17 -8.2 60 60 WNW 7 11 29.95 1014 10 16 N/A
1:56 am 01:56 Clear 30 -1.1 16 -8.9 56 56 WSW 3 6 29.92 1013 10 16 N/A
2:56 am 02:56 Clear 32 -0.2 16 -8.8 53 53 NE 2 4 29.86 1011 10 16 N/A
3:56 am 03:56 Clear 31 -0.5 17 -8.4 56 56 WNW 2 4 29.86 1011 10 16 N/A
4:56 am 04:56 Clear 34 1.3 17 -8.4 49 49 WNW 5 7 29.85 1011 10 16 N/A
5:56 am 05:56 Clear 39 3.9 12 -10.9 33 33 W 3 6 29.80 1009 10 16 N/A
6:56 am 06:56 Clear 37 2.7 9 -12.6 32 32 W 2 4 29.79 1009 10 16 N/A
7:56 am 07:56 Sunny 38 3.4 11 -11.9 32 32 NNW 2 4 29.82 1010 10 16 N/A
8:56 am 08:56 Mostly Cloudy 42 5.5 11 -11.7 28 28 NNW 6 9 29.81 1010 10 16 N/A
9:56 am 09:56 Mostly Cloudy 47 8.1 4 -15.7 17 17 S 12 19 29.77 1008 10 16 N/A
10:56 am 10:56 Partly Cloudy 47 8.6 13 -10.7 25 25 E 3 6 29.75 1008 10 16 N/A
11:56 am 11:56 Mostly Cloudy 49 9.6 14 -10 24 24 SSE 5 7 29.71 1006 10 16 N/A
12:56 pm 12:56 Mostly Cloudy 51 10.5 13 -10.7 22 22 ENE 3 6 29.68 1005 10 16 N/A
1:56 pm 13:56 Mostly Cloudy 49 9.5 1 -17.2 13 13 WSW 1 2 29.65 1004 10 16 N/A
2:56 pm 14:56 Mostly Cloudy 48 9 15 -9.5 26 26 NNE 2 4 29.68 1005 10 16 N/A
3:56 pm 15:56 Mostly Cloudy 49 9.5 17 -8.3 28 28 W 5 7 29.67 1005 10 16 N/A
4:56 pm 16:56 Mostly Cloudy 47 8.2 15 -9.2 28 28 NW 15 24 29.69 1005 10 16 N/A
5:56 pm 17:56 Mostly Cloudy 42 5.6 20 -6.7 41 41 W 5 7 29.71 1006 10 16 N/A
6:56 pm 18:56 Mostly Cloudy 43 6 18 -7.7 37 37 WSW 2 4 29.75 1008 10 16 N/A
7:56 pm 19:56 Mostly Cloudy 44 6.9 15 -9.7 30 30 SSW 3 6 29.74 1007 10 16 N/A
8:56 pm 20:56 Clear 43 6.3 15 -9.3 32 32 S 2 4 29.75 1007 10 16 N/A
9:56 pm 21:56 Clear 40 4.3 20 -6.5 46 46 WNW 10 17 29.75 1008 10 16 N/A
10:56 pm 22:56 Partly Cloudy 39 3.7 18 -7.8 43 43 NW 2 4 29.77 1008 10 16 N/A
11:56 pm 23:56 Clear 38 3.3 21 -6.2 50 50 WNW 8 13 29.78 1008 10 16 N/A

Powered by AerisWeather